Location: La Silve
(44.2414°N, 5.8889°E)
Time: 10:06:47
(UTC+00:00)

USA 238 DEB - Pass Details

Date: 01 December 2020
Orbit: 996 x 1216 km, 63.4° (Epoch: 22 January)

Event Time Altitude Azimuth Distance (km) Brightness Sun altitude
Rises 18:50:39 0° 228° (SW) 3,721 7.2 -30.1°
Reaches altitude 10° 18:53:13 10° 231° (SW) 2,789 6.5 -30.6°
Maximum altitude 18:59:43 62° 312° (NW) 1,163 3.9 -31.7°
Enters shadow 19:00:38 57° 348° (NNW) 1,224 3.9 -31.9°
